Location: Lecco
(45.8566°N, 9.3977°E)
Time: 21:51:47
(UTC+02:00)

Vanguard 1 Rocket - Pass Details

Date: 16 August 2020
Orbit: 655 x 4221 km, 34.3° (Epoch: 30 September)

Event Time Altitude Azimuth Distance (km) Brightness Sun altitude
Exits shadow 03:27:54 13° 168° (SSE) 4,934 10.7 -24.5°
Maximum altitude 03:31:12 14° 153° (SSE) 4,454 10.6 -24.2°
Drops below altitude 10° 03:36:28 10° 125° (SE) 4,151 10.7 -23.7°
Sets 03:41:11 0° 102° (ESE) 4,526 11.3 -23.2°
